{"data":{"norad_id":52584,"epoch":"2026-05-25T02:51:15.337728Z","epoch_age_seconds":62011,"freshness":"FRESH","line1":"1 52584U 22051BA  26145.11892752 -.00000490  00000+0 -12712-4 0  9998","line2":"2 52584  53.2154 136.0170 0001425  36.7287 323.3802 15.08842517223121","mean_motion":15.08842517,"eccentricity":0.0001425,"inclination_deg":53.2154,"raan_deg":136.017,"arg_perigee_deg":36.7287,"mean_anomaly_deg":323.3802,"bstar":-1.2712e-5,"rev_number":22312,"period_min":95.437395472068,"perigee_km":538.74989865363,"apogee_km":540.72149237185,"semimajor_km":6917.8726955127,"source":"CELESTRAK","updated_at":"2026-05-25T13:38:17.195165Z"}}